NCAR-RAP Real-Time Weather Data

Output produced by METARs form (30 April 2017  15:07 UTC)
found at http://weather.rap.ucar.edu/surface/
 
Conditions at: KSPG observed 30 April 2017  14:53 UTC
Temperature: 26.7°C (80°F)
Dewpoint: 21.1°C (70°F) [RH = 71%]
Pressure (altimeter): 30.06 inches Hg (1018.0 mb)
[Sea-level pressure: 1017.9 mb]
Winds: from the SSE (160 degrees) at 21 MPH (18 knots; 9.4 m/s)
Visibility: 10 or more miles (16+ km)
Ceiling: at least 12,000 feet AGL
Clouds: sky clear below 12,000 feet AGL
Present Weather: no significant weather observed at this time
KSPG 301453Z 16018KT 10SM CLR 27/21 A3006 RMK AO2 PK WND 14027/1409 SLP179 T02670211 55009

Conditions at: KSPG observed 30 April 2017  13:53 UTC
Temperature: 25.0°C (77°F)
Dewpoint: 21.7°C (71°F) [RH = 82%]
Pressure (altimeter): 30.06 inches Hg (1018.0 mb)
[Sea-level pressure: 1017.8 mb]
Winds: from the SE (140 degrees) at 22 MPH (19 knots; 9.9 m/s)
Visibility: 10 or more miles (16+ km)
Ceiling: at least 12,000 feet AGL
Clouds: sky clear below 12,000 feet AGL
Present Weather: no significant weather observed at this time
KSPG 301353Z 14019KT 10SM CLR 25/22 A3006 RMK AO2 SLP178 T02500217

Conditions at: KSPG observed 30 April 2017  13:00 UTC
Temperature: 24.4°C (76°F)
Dewpoint: 21.7°C (71°F) [RH = 85%]
Pressure (altimeter): 30.07 inches Hg (1018.4 mb)
Winds: from the SSE (150 degrees) at 20 MPH (17 knots; 8.8 m/s)
Visibility: 10 or more miles (16+ km)
Ceiling: at least 12,000 feet AGL
Clouds: few clouds at 2500 feet AGL
Present Weather: no significant weather observed at this time
KSPG 301300Z 15017KT 10SM FEW025 24/22 A3007 RMK AO2 T02440217

Conditions at: KSPG observed 30 April 2017  12:53 UTC
Temperature: 23.9°C (75°F)
Dewpoint: 21.7°C (71°F) [RH = 88%]
Pressure (altimeter): 30.08 inches Hg (1018.7 mb)
[Sea-level pressure: 1018.4 mb]
Winds: from the SSE (150 degrees) at 17 MPH (15 knots; 7.8 m/s)
Visibility: 10 or more miles (16+ km)
Ceiling: 2500 feet AGL
Clouds: few clouds at 1400 feet AGL
broken clouds at 2500 feet AGL
Present Weather: no significant weather observed at this time
KSPG 301253Z 15015KT 10SM FEW014 BKN025 24/22 A3008 RMK AO2 SLP184 T02390217

Conditions at: KSPG observed 30 April 2017  11:53 UTC
Temperature: 23.9°C (75°F)
Dewpoint: 21.7°C (71°F) [RH = 88%]
Pressure (altimeter): 30.09 inches Hg (1019.0 mb)
[Sea-level pressure: 1018.9 mb]
Winds: from the SE (140 degrees) at 16 MPH (14 knots; 7.3 m/s)
Visibility: 10 or more miles (16+ km)
Ceiling: 7000 feet AGL
Clouds: few clouds at 1400 feet AGL
few clouds at 2300 feet AGL
overcast cloud deck at 7000 feet AGL
Present Weather: no significant weather observed at this time
KSPG 301153Z 14014KT 10SM FEW014 FEW023 OVC070 24/22 A3009 RMK AO2 SLP189 T02390217 10244 20239 51008

Conditions at: KSPG observed 30 April 2017  10:53 UTC
Temperature: 23.9°C (75°F)
Dewpoint: 21.7°C (71°F) [RH = 88%]
Pressure (altimeter): 30.09 inches Hg (1019.0 mb)
[Sea-level pressure: 1018.8 mb]
Winds: from the SE (140 degrees) at 17 MPH (15 knots; 7.8 m/s)
Visibility: 10 or more miles (16+ km)
Ceiling: 7000 feet AGL
Clouds: few clouds at 1400 feet AGL
few clouds at 3000 feet AGL
overcast cloud deck at 7000 feet AGL
Present Weather: no significant weather observed at this time
KSPG 301053Z 14015KT 10SM FEW014 FEW030 OVC070 24/22 A3009 RMK AO2 SLP188 T02390217

Conditions at: KSPG observed 30 April 2017  09:53 UTC
Temperature: 24.4°C (76°F)
Dewpoint: 21.7°C (71°F) [RH = 85%]
Pressure (altimeter): 30.08 inches Hg (1018.7 mb)
[Sea-level pressure: 1018.4 mb]
Winds: from the SE (140 degrees) at 16 MPH (14 knots; 7.3 m/s)
Visibility: 10 or more miles (16+ km)
Ceiling: 6000 feet AGL
Clouds: overcast cloud deck at 6000 feet AGL
Present Weather: automated observation with no human augmentation;
there may or may not be significant weather present at this time
KSPG 300953Z AUTO 14014KT 10SM OVC060 24/22 A3008 RMK AO2 SLP184 T02440217

Conditions at: KSPG observed 30 April 2017  08:53 UTC
Temperature: 24.4°C (76°F)
Dewpoint: 21.7°C (71°F) [RH = 85%]
Pressure (altimeter): 30.07 inches Hg (1018.4 mb)
[Sea-level pressure: 1018.1 mb]
Winds: from the SE (140 degrees) at 17 MPH (15 knots; 7.8 m/s)
Visibility: 10 or more miles (16+ km)
Ceiling: 5500 feet AGL
Clouds: overcast cloud deck at 5500 feet AGL
Present Weather: automated observation with no human augmentation;
there may or may not be significant weather present at this time
KSPG 300853Z AUTO 14015KT 10SM OVC055 24/22 A3007 RMK AO2 SLP181 T02440217 53002

Conditions at: KSPG observed 30 April 2017  07:53 UTC
Temperature: 24.4°C (76°F)
Dewpoint: 21.7°C (71°F) [RH = 85%]
Pressure (altimeter): 30.05 inches Hg (1017.7 mb)
[Sea-level pressure: 1017.6 mb]
Winds: from the SE (140 degrees) at 16 MPH (14 knots; 7.3 m/s)
Visibility: 10 or more miles (16+ km)
Ceiling: at least 12,000 feet AGL
Clouds: sky clear below 12,000 feet AGL
Present Weather: automated observation with no human augmentation;
there may or may not be significant weather present at this time
KSPG 300753Z AUTO 14014KT 10SM CLR 24/22 A3005 RMK AO2 SLP176 T02440217

Conditions at: KSPG observed 30 April 2017  06:53 UTC
Temperature: 24.4°C (76°F)
Dewpoint: 21.7°C (71°F) [RH = 85%]
Pressure (altimeter): 30.06 inches Hg (1018.0 mb)
[Sea-level pressure: 1017.7 mb]
Winds: from the SE (140 degrees) at 17 MPH (15 knots; 7.8 m/s)
Visibility: 10 or more miles (16+ km)
Ceiling: at least 12,000 feet AGL
Clouds: sky clear below 12,000 feet AGL
Present Weather: automated observation with no human augmentation;
there may or may not be significant weather present at this time
KSPG 300653Z AUTO 14015KT 10SM CLR 24/22 A3006 RMK AO2 SLP177 T02440217

Conditions at: KSPG observed 30 April 2017  05:53 UTC
Temperature: 24.4°C (76°F)
Dewpoint: 21.1°C (70°F) [RH = 82%]
Pressure (altimeter): 30.06 inches Hg (1018.0 mb)
[Sea-level pressure: 1017.9 mb]
Winds: from the SE (140 degrees) at 17 MPH (15 knots; 7.8 m/s)
Visibility: 10 or more miles (16+ km)
Ceiling: at least 12,000 feet AGL
Clouds: sky clear below 12,000 feet AGL
Present Weather: automated observation with no human augmentation;
there may or may not be significant weather present at this time
KSPG 300553Z AUTO 14015KT 10SM CLR 24/21 A3006 RMK AO2 SLP179 T02440211 10278 20244 58005

Conditions at: KSPG observed 30 April 2017  04:53 UTC
Temperature: 25.0°C (77°F)
Dewpoint: 20.6°C (69°F) [RH = 77%]
Pressure (altimeter): 30.07 inches Hg (1018.4 mb)
[Sea-level pressure: 1018.3 mb]
Winds: from the SE (140 degrees) at 21 MPH (18 knots; 9.4 m/s)
Visibility: 10 or more miles (16+ km)
Ceiling: at least 12,000 feet AGL
Clouds: sky clear below 12,000 feet AGL
Present Weather: automated observation with no human augmentation;
there may or may not be significant weather present at this time
KSPG 300453Z AUTO 14018KT 10SM CLR 25/21 A3007 RMK AO2 SLP183 T02500206 403280228

Conditions at: KSPG observed 30 April 2017  03:53 UTC
Temperature: 26.1°C (79°F)
Dewpoint: 20.0°C (68°F) [RH = 69%]
Pressure (altimeter): 30.08 inches Hg (1018.7 mb)
[Sea-level pressure: 1018.6 mb]
Winds: from the SSE (150 degrees) at 20 MPH (17 knots; 8.8 m/s)
Visibility: 10 or more miles (16+ km)
Ceiling: at least 12,000 feet AGL
Clouds: sky clear below 12,000 feet AGL
Present Weather: automated observation with no human augmentation;
there may or may not be significant weather present at this time
KSPG 300353Z AUTO 15017KT 10SM CLR 26/20 A3008 RMK AO2 SLP186 T02610200

Conditions at: KSPG observed 30 April 2017  02:53 UTC
Temperature: 26.7°C (80°F)
Dewpoint: 19.4°C (67°F) [RH = 64%]
Pressure (altimeter): 30.08 inches Hg (1018.7 mb)
[Sea-level pressure: 1018.4 mb]
Winds: from the SE (140 degrees) at 16 MPH (14 knots; 7.3 m/s)
Visibility: 10 or more miles (16+ km)
Ceiling: at least 12,000 feet AGL
Clouds: sky clear below 12,000 feet AGL
Present Weather: automated observation with no human augmentation;
there may or may not be significant weather present at this time
KSPG 300253Z AUTO 14014KT 10SM CLR 27/19 A3008 RMK AO2 SLP184 T02670194 51016

Conditions at: KSPG observed 30 April 2017  01:53 UTC
Temperature: 27.8°C (82°F)
Dewpoint: 19.4°C (67°F) [RH = 60%]
Pressure (altimeter): 30.07 inches Hg (1018.4 mb)
[Sea-level pressure: 1018.1 mb]
Winds: from the SSE (150 degrees) at 14 MPH (12 knots; 6.2 m/s)
Visibility: 10 or more miles (16+ km)
Ceiling: at least 12,000 feet AGL
Clouds: sky clear below 12,000 feet AGL
Present Weather: automated observation with no human augmentation;
there may or may not be significant weather present at this time
KSPG 300153Z AUTO 15012KT 10SM CLR 28/19 A3007 RMK AO2 SLP181 T02780194

Conditions at: KSPG observed 30 April 2017  00:53 UTC
Temperature: 27.2°C (81°F)
Dewpoint: 20.6°C (69°F) [RH = 67%]
Pressure (altimeter): 30.04 inches Hg (1017.4 mb)
[Sea-level pressure: 1017.3 mb]
Winds: from the SSW (200 degrees) at 3 MPH (3 knots; 1.6 m/s)
Visibility: 10 or more miles (16+ km)
Ceiling: at least 12,000 feet AGL
Clouds: sky clear below 12,000 feet AGL
Present Weather: no significant weather observed at this time
KSPG 300053Z 20003KT 10SM CLR 27/21 A3004 RMK AO2 SLP173 T02720206

Conditions at: KSPG observed 29 April 2017  23:53 UTC
Temperature: 27.8°C (82°F)
Dewpoint: 21.1°C (70°F) [RH = 67%]
Pressure (altimeter): 30.03 inches Hg (1017.0 mb)
[Sea-level pressure: 1016.9 mb]
Winds: from the WSW (250 degrees) at 7 MPH (6 knots; 3.1 m/s)
Visibility: 10 or more miles (16+ km)
Ceiling: at least 12,000 feet AGL
Clouds: sky clear below 12,000 feet AGL
Present Weather: no significant weather observed at this time
KSPG 292353Z 25006KT 10SM CLR 28/21 A3003 RMK AO2 SLP169 T02780211 10328 20278 53003

Conditions at: KSPG observed 29 April 2017  22:53 UTC
Temperature: 28.3°C (83°F)
Dewpoint: 20.6°C (69°F) [RH = 63%]
Pressure (altimeter): 30.02 inches Hg (1016.7 mb)
[Sea-level pressure: 1016.5 mb]
Winds: from the WSW (240 degrees) at 8 MPH (7 knots; 3.6 m/s)
Visibility: 10 or more miles (16+ km)
Ceiling: at least 12,000 feet AGL
Clouds: sky clear below 12,000 feet AGL
Present Weather: no significant weather observed at this time
KSPG 292253Z 24007KT 10SM CLR 28/21 A3002 RMK AO2 SLP165 T02830206

Conditions at: KSPG observed 29 April 2017  21:53 UTC
Temperature: 29.4°C (85°F)
Dewpoint: 20.6°C (69°F) [RH = 59%]
Pressure (altimeter): 30.02 inches Hg (1016.7 mb)
[Sea-level pressure: 1016.4 mb]
Winds: from the WSW (240 degrees) at 7 MPH (6 knots; 3.1 m/s)
Visibility: 10 or more miles (16+ km)
Ceiling: at least 12,000 feet AGL
Clouds: sky clear below 12,000 feet AGL
Present Weather: no significant weather observed at this time
KSPG 292153Z 24006KT 10SM CLR 29/21 A3002 RMK AO2 SLP164 T02940206

Conditions at: KSPG observed 29 April 2017  20:53 UTC
Temperature: 31.7°C (89°F)
Dewpoint: 18.3°C (65°F) [RH = 45%]
Pressure (altimeter): 30.02 inches Hg (1016.7 mb)
[Sea-level pressure: 1016.6 mb]
Winds: from the SSW (200 degrees) at 10 MPH (9 knots; 4.7 m/s)
Visibility: 10 or more miles (16+ km)
Ceiling: 8500 feet AGL
Clouds: broken clouds at 8500 feet AGL
Present Weather: no significant weather observed at this time
KSPG 292053Z 20009KT 150V220 10SM BKN085 32/18 A3002 RMK AO2 SLP166 T03170183 56020

Conditions at: KSPG observed 29 April 2017  19:53 UTC
Temperature: 31.7°C (89°F)
Dewpoint: 20.6°C (69°F) [RH = 52%]
Pressure (altimeter): 30.03 inches Hg (1017.0 mb)
[Sea-level pressure: 1016.9 mb]
Winds: from the SE (140 degrees) at 12 MPH (10 knots; 5.2 m/s)
Visibility: 10 or more miles (16+ km)
Ceiling: at least 12,000 feet AGL
Clouds: few clouds at 7000 feet AGL
scattered clouds at 9500 feet AGL
Present Weather: no significant weather observed at this time
KSPG 291953Z 14010KT 10SM FEW070 SCT095 32/21 A3003 RMK AO2 SLP169 T03170206

Conditions at: KSPG observed 29 April 2017  18:53 UTC
Temperature: 31.1°C (88°F)
Dewpoint: 20.6°C (69°F) [RH = 54%]
Pressure (altimeter): 30.06 inches Hg (1018.0 mb)
[Sea-level pressure: 1017.7 mb]
Winds: from the SE (140 degrees) at 9 MPH (8 knots; 4.2 m/s)
Visibility: 10 or more miles (16+ km)
Ceiling: at least 12,000 feet AGL
Clouds: few clouds at 7000 feet AGL
Present Weather: no significant weather observed at this time
KSPG 291853Z 14008KT 10SM FEW070 31/21 A3006 RMK AO2 SLP177 T03110206

Conditions at: KSPG observed 29 April 2017  17:53 UTC
Temperature: 31.7°C (89°F)
Dewpoint: 19.4°C (67°F) [RH = 48%]
Pressure (altimeter): 30.08 inches Hg (1018.7 mb)
[Sea-level pressure: 1018.5 mb]
Winds: from the SSE (150 degrees) at 13 MPH (11 knots; 5.7 m/s)
Visibility: 10 or more miles (16+ km)
Ceiling: at least 12,000 feet AGL
Clouds: few clouds at 6500 feet AGL
Present Weather: no significant weather observed at this time
KSPG 291753Z 15011KT 10SM FEW065 32/19 A3008 RMK AO2 SLP185 T03170194 10317 20228 58007

Conditions at: KSPG observed 29 April 2017  16:53 UTC
Temperature: 29.4°C (85°F)
Dewpoint: 20.6°C (69°F) [RH = 59%]
Pressure (altimeter): 30.09 inches Hg (1019.0 mb)
[Sea-level pressure: 1018.9 mb]
Winds: from the SSE (160 degrees) at 12 MPH (10 knots; 5.2 m/s)
Visibility: 10 or more miles (16+ km)
Ceiling: at least 12,000 feet AGL
Clouds: few clouds at 5500 feet AGL
Present Weather: no significant weather observed at this time
KSPG 291653Z 16010KT 10SM FEW055 29/21 A3009 RMK AO2 SLP189 T02940206

Conditions at: KSPG observed 29 April 2017  15:53 UTC
Temperature: 27.8°C (82°F)
Dewpoint: 21.1°C (70°F) [RH = 67%]
Pressure (altimeter): 30.10 inches Hg (1019.4 mb)
[Sea-level pressure: 1019.2 mb]
Winds: from the SSE (150 degrees) at 13 MPH (11 knots; 5.7 m/s)
Visibility: 10 or more miles (16+ km)
Ceiling: at least 12,000 feet AGL
Clouds: sky clear below 12,000 feet AGL
Present Weather: no significant weather observed at this time
KSPG 291553Z 15011KT 10SM CLR 28/21 A3010 RMK AO2 SLP192 T02780211

Conditions at: KSPG observed 29 April 2017  14:53 UTC
Temperature: 27.2°C (81°F)
Dewpoint: 21.7°C (71°F) [RH = 72%]
Pressure (altimeter): 30.10 inches Hg (1019.4 mb)
[Sea-level pressure: 1019.2 mb]
Winds: from the SSE (160 degrees) at 17 MPH (15 knots; 7.8 m/s)
Visibility: 10 or more miles (16+ km)
Ceiling: at least 12,000 feet AGL
Clouds: few clouds at 3100 feet AGL
Present Weather: no significant weather observed at this time
KSPG 291453Z 16015KT 10SM FEW031 27/22 A3010 RMK AO2 SLP192 T02720217 58002

Conditions at: KSPG observed 29 April 2017  13:53 UTC
Temperature: 25.6°C (78°F)
Dewpoint: 22.2°C (72°F) [RH = 82%]
Pressure (altimeter): 30.11 inches Hg (1019.7 mb)
[Sea-level pressure: 1019.5 mb]
Winds: from the SSE (150 degrees) at 15 MPH (13 knots; 6.8 m/s)
Visibility: 10 or more miles (16+ km)
Ceiling: at least 12,000 feet AGL
Clouds: few clouds at 1500 feet AGL
few clouds at 2000 feet AGL
Present Weather: no significant weather observed at this time
KSPG 291353Z 15013KT 10SM FEW015 FEW020 26/22 A3011 RMK AO2 SLP195 T02560222

Conditions at: KSPG observed 29 April 2017  13:16 UTC
Temperature: 24.4°C (76°F)
Dewpoint: 22.8°C (73°F) [RH = 91%]
Pressure (altimeter): 30.11 inches Hg (1019.7 mb)
Winds: from the SSE (150 degrees) at 16 MPH (14 knots; 7.3 m/s)
Visibility: 10 or more miles (16+ km)
Ceiling: at least 12,000 feet AGL
Clouds: scattered clouds at 1200 feet AGL
scattered clouds at 1700 feet AGL
Present Weather: no significant weather observed at this time
KSPG 291316Z 15014KT 10SM SCT012 SCT017 24/23 A3011 RMK AO2 T02440228

Conditions at: KSPG observed 29 April 2017  12:53 UTC
Temperature: 23.9°C (75°F)
Dewpoint: 22.8°C (73°F) [RH = 94%]
Pressure (altimeter): 30.11 inches Hg (1019.7 mb)
[Sea-level pressure: 1019.4 mb]
Winds: from the SE (140 degrees) at 15 MPH (13 knots; 6.8 m/s)
Visibility: 10 or more miles (16+ km)
Ceiling: 1700 feet AGL
Clouds: few clouds at 1100 feet AGL
broken clouds at 1700 feet AGL
Present Weather: no significant weather observed at this time
KSPG 291253Z 14013KT 10SM FEW011 BKN017 24/23 A3011 RMK AO2 SLP194 T02390228

Conditions at: KSPG observed 29 April 2017  12:50 UTC
Temperature: 24.0°C (75°F)
Dewpoint: 23.0°C (73°F) [RH = 94%]
Pressure (altimeter): 30.11 inches Hg (1019.7 mb)
Winds: from the SE (140 degrees) at 18 MPH (16 knots; 8.3 m/s)
Visibility: 10 or more miles (16+ km)
Ceiling: 1700 feet AGL
Clouds: few clouds at 1100 feet AGL
broken clouds at 1700 feet AGL
Present Weather: no significant weather observed at this time
KSPG 291250Z 14016KT 10SM FEW011 BKN017 24/23 A3011 RMK AO2

Conditions at: KSPG observed 29 April 2017  12:17 UTC
Temperature: 23.3°C (74°F)
Dewpoint: 22.2°C (72°F) [RH = 94%]
Pressure (altimeter): 30.11 inches Hg (1019.7 mb)
Winds: from the SE (140 degrees) at 16 MPH (14 knots; 7.3 m/s)
Visibility: 10 or more miles (16+ km)
Ceiling: at least 12,000 feet AGL
Clouds: few clouds at 800 feet AGL
scattered clouds at 1800 feet AGL
Present Weather: no significant weather observed at this time
KSPG 291217Z 14014KT 10SM FEW008 SCT018 23/22 A3011 RMK AO2 T02330222

Conditions at: KSPG observed 29 April 2017  11:53 UTC
Temperature: 22.8°C (73°F)
Dewpoint: 22.8°C (73°F) [RH = 100%]
Pressure (altimeter): 30.11 inches Hg (1019.7 mb)
[Sea-level pressure: 1019.5 mb]
Winds: from the SE (140 degrees) at 16 MPH (14 knots; 7.3 m/s)
Visibility: 10 or more miles (16+ km)
Ceiling: 1700 feet AGL
Clouds: few clouds at 800 feet AGL
overcast cloud deck at 1700 feet AGL
Present Weather: no significant weather observed at this time
KSPG 291153Z 14014KT 10SM FEW008 OVC017 23/23 A3011 RMK AO2 SLP195 T02280228 10244 20228 53015

Conditions at: KSPG observed 29 April 2017  11:00 UTC
Temperature: 22.8°C (73°F)
Dewpoint: 22.8°C (73°F) [RH = 100%]
Pressure (altimeter): 30.09 inches Hg (1019.0 mb)
Winds: from the SE (130 degrees) at 15 MPH (13 knots; 6.8 m/s)
Visibility: 9 miles (14 km)
Ceiling: 1500 feet AGL
Clouds: scattered clouds at 900 feet AGL
overcast cloud deck at 1500 feet AGL
Present Weather: no significant weather observed at this time
KSPG 291100Z 13013KT 9SM SCT009 OVC015 23/23 A3009 RMK AO2 T02280228

Conditions at: KSPG observed 29 April 2017  10:53 UTC
Temperature: 22.8°C (73°F)
Dewpoint: 22.8°C (73°F) [RH = 100%]
Pressure (altimeter): 30.08 inches Hg (1018.7 mb)
[Sea-level pressure: 1018.6 mb]
Winds: from the SE (130 degrees) at 16 MPH (14 knots; 7.3 m/s)
Visibility: 10 or more miles (16+ km)
Ceiling: 1500 feet AGL
Clouds: few clouds at 1000 feet AGL
overcast cloud deck at 1500 feet AGL
Present Weather: no significant weather observed at this time
KSPG 291053Z 13014KT 10SM FEW010 OVC015 23/23 A3008 RMK AO2 SLP186 T02280228

Conditions at: KSPG observed 29 April 2017  09:53 UTC
Temperature: 22.8°C (73°F)
Dewpoint: 22.8°C (73°F) [RH = 100%]
Pressure (altimeter): 30.07 inches Hg (1018.4 mb)
[Sea-level pressure: 1018.1 mb]
Winds: from the SE (140 degrees) at 13 MPH (11 knots; 5.7 m/s)
Visibility: 10 or more miles (16+ km)
Ceiling: 1800 feet AGL
Clouds: overcast cloud deck at 1800 feet AGL
Present Weather: automated observation with no human augmentation;
there may or may not be significant weather present at this time
KSPG 290953Z AUTO 14011KT 10SM OVC018 23/23 A3007 RMK AO2 SLP181 T02280228

Conditions at: KSPG observed 29 April 2017  08:53 UTC
Temperature: 23.3°C (74°F)
Dewpoint: 22.8°C (73°F) [RH = 97%]
Pressure (altimeter): 30.06 inches Hg (1018.0 mb)
[Sea-level pressure: 1018.0 mb]
Winds: from the SE (140 degrees) at 15 MPH (13 knots; 6.8 m/s)
Visibility: 10 or more miles (16+ km)
Ceiling: 1700 feet AGL
Clouds: overcast cloud deck at 1700 feet AGL
Present Weather: automated observation with no human augmentation;
there may or may not be significant weather present at this time
KSPG 290853Z AUTO 14013KT 10SM OVC017 23/23 A3006 RMK AO2 SLP180 T02330228 56004

Conditions at: KSPG observed 29 April 2017  08:26 UTC
Temperature: 23.3°C (74°F)
Dewpoint: 22.2°C (72°F) [RH = 94%]
Pressure (altimeter): 30.07 inches Hg (1018.4 mb)
Winds: from the SE (140 degrees) at 15 MPH (13 knots; 6.8 m/s)
Visibility: 10 or more miles (16+ km)
Ceiling: 1800 feet AGL
Clouds: broken clouds at 1800 feet AGL
Present Weather: automated observation with no human augmentation;
there may or may not be significant weather present at this time
KSPG 290826Z AUTO 14013KT 10SM BKN018 23/22 A3007 RMK AO2 T02330222

Conditions at: KSPG observed 29 April 2017  08:12 UTC
Temperature: 23.3°C (74°F)
Dewpoint: 22.8°C (73°F) [RH = 97%]
Pressure (altimeter): 30.07 inches Hg (1018.4 mb)
Winds: from the SE (140 degrees) at 14 MPH (12 knots; 6.2 m/s)
Visibility: 10 or more miles (16+ km)
Ceiling: at least 12,000 feet AGL
Clouds: scattered clouds at 1700 feet AGL
Present Weather: automated observation with no human augmentation;
there may or may not be significant weather present at this time
KSPG 290812Z AUTO 14012KT 10SM SCT017 23/23 A3007 RMK AO2 T02330228

Conditions at: KSPG observed 29 April 2017  08:05 UTC
Temperature: 23.3°C (74°F)
Dewpoint: 22.2°C (72°F) [RH = 94%]
Pressure (altimeter): 30.07 inches Hg (1018.4 mb)
Winds: from the SE (140 degrees) at 15 MPH (13 knots; 6.8 m/s)
Visibility: 10 or more miles (16+ km)
Ceiling: 1700 feet AGL
Clouds: broken clouds at 1700 feet AGL
Present Weather: automated observation with no human augmentation;
there may or may not be significant weather present at this time
KSPG 290805Z AUTO 14013KT 10SM BKN017 23/22 A3007 RMK AO2 T02330222

Conditions at: KSPG observed 29 April 2017  07:53 UTC
Temperature: 23.3°C (74°F)
Dewpoint: 22.2°C (72°F) [RH = 94%]
Pressure (altimeter): 30.07 inches Hg (1018.4 mb)
[Sea-level pressure: 1018.1 mb]
Winds: from the SE (130 degrees) at 13 MPH (11 knots; 5.7 m/s)
Visibility: 10 or more miles (16+ km)
Ceiling: at least 12,000 feet AGL
Clouds: few clouds at 1600 feet AGL
Present Weather: automated observation with no human augmentation;
there may or may not be significant weather present at this time
KSPG 290753Z AUTO 13011KT 10SM FEW016 23/22 A3007 RMK AO2 SLP181 T02330222

Conditions at: KSPG observed 29 April 2017  06:53 UTC
Temperature: 23.9°C (75°F)
Dewpoint: 22.2°C (72°F) [RH = 90%]
Pressure (altimeter): 30.07 inches Hg (1018.4 mb)
[Sea-level pressure: 1018.2 mb]
Winds: from the SSE (150 degrees) at 16 MPH (14 knots; 7.3 m/s)
Visibility: 10 or more miles (16+ km)
Ceiling: at least 12,000 feet AGL
Clouds: sky clear below 12,000 feet AGL
Present Weather: automated observation with no human augmentation;
there may or may not be significant weather present at this time
KSPG 290653Z AUTO 15014KT 10SM CLR 24/22 A3007 RMK AO2 SLP182 T02390222

Conditions at: KSPG observed 29 April 2017  05:53 UTC
Temperature: 24.4°C (76°F)
Dewpoint: 22.2°C (72°F) [RH = 88%]
Pressure (altimeter): 30.08 inches Hg (1018.7 mb)
[Sea-level pressure: 1018.4 mb]
Winds: from the SE (140 degrees) at 16 MPH (14 knots; 7.3 m/s)
Visibility: 10 or more miles (16+ km)
Ceiling: at least 12,000 feet AGL
Clouds: sky clear below 12,000 feet AGL
Present Weather: automated observation with no human augmentation;
there may or may not be significant weather present at this time
KSPG 290553Z AUTO 14014KT 10SM CLR 24/22 A3008 RMK AO2 SLP184 T02440222 10278 20244 50001

Conditions at: KSPG observed 29 April 2017  04:53 UTC
Temperature: 25.0°C (77°F)
Dewpoint: 21.7°C (71°F) [RH = 82%]
Pressure (altimeter): 30.08 inches Hg (1018.7 mb)
[Sea-level pressure: 1018.7 mb]
Winds: from the SE (140 degrees) at 14 MPH (12 knots; 6.2 m/s)
Visibility: 10 or more miles (16+ km)
Ceiling: at least 12,000 feet AGL
Clouds: sky clear below 12,000 feet AGL
Present Weather: automated observation with no human augmentation;
there may or may not be significant weather present at this time
KSPG 290453Z AUTO 14012KT 10SM CLR 25/22 A3008 RMK AO2 SLP187 T02500217 403000228

Conditions at: KSPG observed 29 April 2017  03:53 UTC
Temperature: 26.1°C (79°F)
Dewpoint: 21.7°C (71°F) [RH = 77%]
Pressure (altimeter): 30.07 inches Hg (1018.4 mb)
[Sea-level pressure: 1018.3 mb]
Winds: from the SSE (150 degrees) at 17 MPH (15 knots; 7.8 m/s)
Visibility: 10 or more miles (16+ km)
Ceiling: at least 12,000 feet AGL
Clouds: few clouds at 6000 feet AGL
Present Weather: automated observation with no human augmentation;
there may or may not be significant weather present at this time
KSPG 290353Z AUTO 15015KT 10SM FEW060 26/22 A3007 RMK AO2 SLP183 T02610217

Conditions at: KSPG observed 29 April 2017  02:53 UTC
Temperature: 26.7°C (80°F)
Dewpoint: 21.7°C (71°F) [RH = 74%]
Pressure (altimeter): 30.07 inches Hg (1018.4 mb)
[Sea-level pressure: 1018.3 mb]
Winds: from the SSE (150 degrees) at 12 MPH (10 knots; 5.2 m/s)
Visibility: 10 or more miles (16+ km)
Ceiling: at least 12,000 feet AGL
Clouds: sky clear below 12,000 feet AGL
Present Weather: automated observation with no human augmentation;
there may or may not be significant weather present at this time
KSPG 290253Z AUTO 15010KT 10SM CLR 27/22 A3007 RMK AO2 SLP183 T02670217 51023

Conditions at: KSPG observed 29 April 2017  01:53 UTC
Temperature: 26.1°C (79°F)
Dewpoint: 23.3°C (74°F) [RH = 85%]
Pressure (altimeter): 30.05 inches Hg (1017.7 mb)
[Sea-level pressure: 1017.6 mb]
Winds: from the S (170 degrees) at 5 MPH (4 knots; 2.1 m/s)
Visibility: 10 or more miles (16+ km)
Ceiling: at least 12,000 feet AGL
Clouds: sky clear below 12,000 feet AGL
Present Weather: automated observation with no human augmentation;
there may or may not be significant weather present at this time
KSPG 290153Z AUTO 17004KT 10SM CLR 26/23 A3005 RMK AO2 SLP176 T02610233

Conditions at: KSPG observed 29 April 2017  00:53 UTC
Temperature: 26.7°C (80°F)
Dewpoint: 22.8°C (73°F) [RH = 79%]
Pressure (altimeter): 30.03 inches Hg (1017.0 mb)
[Sea-level pressure: 1016.7 mb]
Winds: from the SW (220 degrees) at 6 MPH (5 knots; 2.6 m/s)
Visibility: 10 or more miles (16+ km)
Ceiling: at least 12,000 feet AGL
Clouds: sky clear below 12,000 feet AGL
Present Weather: no significant weather observed at this time
KSPG 290053Z 22005KT 10SM CLR 27/23 A3003 RMK AO2 SLP167 T02670228

Conditions at: KSPG observed 28 April 2017  23:53 UTC
Temperature: 27.8°C (82°F)
Dewpoint: 22.2°C (72°F) [RH = 72%]
Pressure (altimeter): 30.00 inches Hg (1016.0 mb)
[Sea-level pressure: 1016.0 mb]
Winds: from the SW (220 degrees) at 9 MPH (8 knots; 4.2 m/s)
Visibility: 10 or more miles (16+ km)
Ceiling: at least 12,000 feet AGL
Clouds: sky clear below 12,000 feet AGL
Present Weather: no significant weather observed at this time
KSPG 282353Z 22008KT 10SM CLR 28/22 A3000 RMK AO2 SLP160 T02780222 10300 20278 53007

Conditions at: KSPG observed 28 April 2017  22:53 UTC
Temperature: 28.3°C (83°F)
Dewpoint: 21.7°C (71°F) [RH = 67%]
Pressure (altimeter): 29.99 inches Hg (1015.7 mb)
[Sea-level pressure: 1015.6 mb]
Winds: from the WSW (250 degrees) at 12 MPH (10 knots; 5.2 m/s)
Visibility: 10 or more miles (16+ km)
Ceiling: at least 12,000 feet AGL
Clouds: sky clear below 12,000 feet AGL
Present Weather: no significant weather observed at this time
KSPG 282253Z 25010KT 10SM CLR 28/22 A2999 RMK AO2 SLP156 T02830217

Conditions at: KSPG observed 28 April 2017  21:53 UTC
Temperature: 29.4°C (85°F)
Dewpoint: 21.7°C (71°F) [RH = 63%]
Pressure (altimeter): 29.99 inches Hg (1015.7 mb)
[Sea-level pressure: 1015.4 mb]
Winds: from the WSW (240 degrees) at 9 MPH (8 knots; 4.2 m/s)
Visibility: 10 or more miles (16+ km)
Ceiling: at least 12,000 feet AGL
Clouds: sky clear below 12,000 feet AGL
Present Weather: no significant weather observed at this time
KSPG 282153Z 24008KT 10SM CLR 29/22 A2999 RMK AO2 SLP154 T02940217

Conditions at: KSPG observed 28 April 2017  20:53 UTC
Temperature: 29.4°C (85°F)
Dewpoint: 21.1°C (70°F) [RH = 61%]
Pressure (altimeter): 29.98 inches Hg (1015.3 mb)
[Sea-level pressure: 1015.3 mb]
Winds: from the WSW (250 degrees) at 7 MPH (6 knots; 3.1 m/s)
Visibility: 10 or more miles (16+ km)
Ceiling: at least 12,000 feet AGL
Clouds: sky clear below 12,000 feet AGL
Present Weather: no significant weather observed at this time
KSPG 282053Z 25006KT 10SM CLR 29/21 A2998 RMK AO2 SLP153 T02940211 56016

Conditions at: KSPG observed 28 April 2017  19:53 UTC
Temperature: 29.4°C (85°F)
Dewpoint: 21.7°C (71°F) [RH = 63%]
Pressure (altimeter): 30.00 inches Hg (1016.0 mb)
[Sea-level pressure: 1015.7 mb]
Winds: from the SW (230 degrees) at 12 MPH (10 knots; 5.2 m/s)
Visibility: 10 or more miles (16+ km)
Ceiling: at least 12,000 feet AGL
Clouds: sky clear below 12,000 feet AGL
Present Weather: no significant weather observed at this time
KSPG 281953Z 23010KT 10SM CLR 29/22 A3000 RMK AO2 SLP157 T02940217

Conditions at: KSPG observed 28 April 2017  18:53 UTC
Temperature: 29.4°C (85°F)
Dewpoint: 21.7°C (71°F) [RH = 63%]
Pressure (altimeter): 30.01 inches Hg (1016.3 mb)
[Sea-level pressure: 1016.2 mb]
Winds: from the WSW (240 degrees) at 10 MPH (9 knots; 4.7 m/s)
Visibility: 10 or more miles (16+ km)
Ceiling: at least 12,000 feet AGL
Clouds: sky clear below 12,000 feet AGL
Present Weather: no significant weather observed at this time
KSPG 281853Z 24009KT 10SM CLR 29/22 A3001 RMK AO2 SLP162 T02940217

Conditions at: KSPG observed 28 April 2017  17:53 UTC
Temperature: 28.9°C (84°F)
Dewpoint: 21.7°C (71°F) [RH = 65%]
Pressure (altimeter): 30.03 inches Hg (1017.0 mb)
[Sea-level pressure: 1016.9 mb]
Winds: from the SE (140 degrees) at 3 MPH (3 knots; 1.6 m/s)
Visibility: 10 or more miles (16+ km)
Ceiling: at least 12,000 feet AGL
Clouds: sky clear below 12,000 feet AGL
Present Weather: no significant weather observed at this time
KSPG 281753Z 14003KT 10SM CLR 29/22 A3003 RMK AO2 SLP169 T02890217 10294 20228 58009

Conditions at: KSPG observed 28 April 2017  16:53 UTC
Temperature: 27.2°C (81°F)
Dewpoint: 22.2°C (72°F) [RH = 74%]
Pressure (altimeter): 30.05 inches Hg (1017.7 mb)
[Sea-level pressure: 1017.4 mb]
Winds: from the SSE (150 degrees) at 6 MPH (5 knots; 2.6 m/s)
Visibility: 10 or more miles (16+ km)
Ceiling: at least 12,000 feet AGL
Clouds: sky clear below 12,000 feet AGL
Present Weather: no significant weather observed at this time
KSPG 281653Z 15005KT 10SM CLR 27/22 A3005 RMK AO2 SLP174 T02720222

Conditions at: KSPG observed 28 April 2017  15:53 UTC
Temperature: 26.7°C (80°F)
Dewpoint: 22.8°C (73°F) [RH = 79%]
Pressure (altimeter): 30.06 inches Hg (1018.0 mb)
[Sea-level pressure: 1017.8 mb]
Winds: from the S (190 degrees) at 12 MPH (10 knots; 5.2 m/s)
Visibility: 10 or more miles (16+ km)
Ceiling: at least 12,000 feet AGL
Clouds: sky clear below 12,000 feet AGL
Present Weather: no significant weather observed at this time
KSPG 281553Z 19010KT 10SM CLR 27/23 A3006 RMK AO2 SLP178 T02670228